Hollywood, FL

12:12 PM EST on January 22, 2018 (GMT -0500)
North Perry

Weather History for KHWO - November, 2012

Change the Weather History Date:

Saturday, November 3, 2012

  Actual Average (KFLL) Record (KFLL)
Temperature  
Mean Temperature 70 °F -  
Max Temperature 84 °F 82 °F 90 °F (1919)
Min Temperature 57 °F 68 °F 51 °F (1957)
Cooling Degree Days 4    
Growing Degree Days 20 (Base 50)    
Moisture  
Dew Point 53 °F    
Average Humidity 58    
Maximum Humidity 90    
Minimum Humidity 29    
Precipitation  
Precipitation 0.00 in - - ()
Sea Level Pressure  
Sea Level Pressure 30.11 in    
Wind  
Wind Speed 3 mph (North)    
Max Wind Speed 13 mph    
Max Gust Speed -    
Visibility 10 miles    
Events      
Averages and records for this station are not official NWS values.
T = Trace of Precipitation, MM = Missing Value Source: NWS Daily Summary

Daily Weather History Graph

Daily Weather History Graph

Search for Another Location

Airport or City:

Trip Planner

Search our weather history database for the weather conditions in past years. The results will help you decide how hot, cold, wet, or windy it might be!

Date:

Astronomy

Nov. 03, 2012 Rise Set
Actual Time 7:31 AM EDT 6:37 PM EDT
Civil Twilight 7:07 AM EDT 7:01 PM EDT
Nautical Twilight 6:39 AM EDT 7:28 PM EDT
Astronomical Twilight 6:12 AM EDT 7:55 PM EDT
Moon 10:25 PM EDT (11/3) 11:24 AM EDT (11/3)
Length of Visible Light 11h 53m
Length of Day
11h 06m
Waning Gibbous, 80% of the Moon is Illuminated
Nov 3
Waning Gibbous
Nov 6
Last Quarter
Nov 13
New
Nov 20
First Quarter
Nov 28
Full

Hourly Weather History & Observations

Time (EDT) Temp. Dew Point Humidity Pressure Visibility Wind Dir Wind Speed Gust Speed Precip Events Conditions
12:53 AM 62.1 °F 51.1 °F 67% 30.10 in 10.0 mi Calm Calm - N/A   Clear
1:53 AM 61.0 °F 51.1 °F 70% 30.09 in 10.0 mi Calm Calm - N/A   Clear
2:53 AM 60.1 °F 52.0 °F 75% 30.08 in 10.0 mi Calm Calm - N/A   Clear
3:53 AM 59.0 °F 53.1 °F 81% 30.08 in 10.0 mi WNW 4.6 mph - N/A   Clear
4:53 AM 60.1 °F 55.0 °F 83% 30.08 in 10.0 mi NW 4.6 mph - N/A   Clear
5:53 AM 59.0 °F 54.0 °F 83% 30.09 in 10.0 mi NW 4.6 mph - N/A   Clear
6:53 AM 57.9 °F 55.0 °F 90% 30.11 in 10.0 mi Calm Calm - N/A   Clear
7:53 AM 59.0 °F 55.0 °F 87% 30.13 in 8.0 mi North 4.6 mph - N/A   Clear
8:53 AM 64.9 °F 55.0 °F 70% 30.16 in 10.0 mi North 9.2 mph - N/A   Clear
9:53 AM 71.1 °F 51.1 °F 49% 30.16 in 10.0 mi North 12.7 mph - N/A   Clear
10:53 AM 75.9 °F 48.9 °F 38% 30.17 in 10.0 mi North 11.5 mph - N/A   Clear
11:53 AM 79.0 °F 48.9 °F 35% 30.15 in 10.0 mi NNW 8.1 mph - N/A   Clear
12:53 PM 80.1 °F 48.9 °F 34% 30.13 in 10.0 mi NNW 9.2 mph - N/A   Clear
1:53 PM 82.0 °F 46.9 °F 29% 30.11 in 10.0 mi NNE 4.6 mph - N/A   Clear
2:53 PM 81.0 °F 46.0 °F 29% 30.09 in 10.0 mi ENE 3.5 mph - N/A   Clear
3:53 PM 82.0 °F 46.9 °F 29% 30.08 in 10.0 mi Variable 5.8 mph - N/A   Clear
4:53 PM 80.1 °F 51.1 °F 36% 30.07 in 10.0 mi East 10.4 mph - N/A   Clear
5:53 PM 77.0 °F 53.1 °F 43% 30.08 in 10.0 mi East 6.9 mph - N/A   Clear
6:53 PM 73.9 °F 55.0 °F 52% 30.09 in 10.0 mi East 3.5 mph - N/A   Clear
7:53 PM 72.0 °F 55.9 °F 57% 30.10 in 10.0 mi ENE 3.5 mph - N/A   Clear
8:53 PM 71.1 °F 57.0 °F 61% 30.11 in 8.0 mi Calm Calm - N/A   Clear
9:53 PM 70.0 °F 57.0 °F 63% 30.12 in 10.0 mi Calm Calm - N/A   Clear
10:53 PM 68.0 °F 57.0 °F 68% 30.13 in 9.0 mi Calm Calm - N/A   Clear
11:53 PM 66.0 °F 57.0 °F 73% 30.12 in 9.0 mi Calm Calm - N/A   Clear